contact:dominique.lefevre@mio.osupytheas.fr, maurice.libes@osupytheas.fr
Project:EMSO Ligure-ouest http://www.emso-fr.org/EMSO-France
Sensor Aquadopp, line 13 Serial AQD14315 
DOI : "https://doi.org/10.17882/74513; https://doi.org/10.17882/83244" 
Title:EMSO Ligure Ouest : Data ligne ALBATROSS capteur AQUADOPP - deploiement 2021
Id,Date,Profondeur,Latitude,Longitude,X_East,Y_North,Z_Up,Amplitude_X,Amplitude_Y,Amplitude_Z,Batterie,SoundSpeed,Heading,Pitch,Roll,Pressure,Temperature,Speed,Direction
, , m, degrees North, degrees East, m.s-1, m.s-1,m.s-1, 1, 1, 1, Volt, m.s-1, degree, degree, degree, dbar, degree_C, m.s-1, degree
09,2022-05-27T21:30:00,2000.0,42.79,6.0312,-0.023,-0.01,-0.018,76.0,72.0,74.0,11.7,1504.7,210.7,-1.2,1.1,1990.449,13.29,0.025,246.5
09,2022-05-27T22:00:00,2000.0,42.79,6.0312,-0.032,-0.013,-0.003,75.0,72.0,73.0,11.7,1504.7,211.6,-1.1,1.1,1990.448,13.29,0.034,247.9
09,2022-05-27T22:30:00,2000.0,42.79,6.0312,-0.056,-0.037,-0.009,79.0,72.0,76.0,11.7,1504.7,214.6,-1.1,1.1,1990.475,13.29,0.067,236.5
09,2022-05-27T23:00:00,2000.0,42.79,6.0312,-0.047,-0.018,0.007,76.0,70.0,75.0,11.7,1504.7,216.6,-1.2,1.0,1990.427,13.29,0.05,249.0
09,2022-05-28T00:00:00,2000.0,42.79,6.0312,-0.036,-0.01,-0.006,75.0,74.0,76.0,11.7,1504.7,211.9,-0.9,1.1,1990.388,13.29,0.037,254.5
09,2022-05-28T00:30:00,2000.0,42.79,6.0312,-0.031,-0.013,-0.015,78.0,73.0,75.0,11.7,1504.7,212.5,-0.7,1.1,1990.401,13.29,0.033,247.3
09,2022-05-28T01:00:00,2000.0,42.79,6.0312,-0.037,-0.031,-0.023,79.0,73.0,74.0,11.7,1504.7,209.3,-1.1,1.1,1990.41,13.29,0.048,230.0
09,2022-05-28T01:30:00,2000.0,42.79,6.0312,-0.047,-0.034,-0.005,76.0,71.0,80.0,11.7,1504.7,209.1,-1.0,1.0,1990.397,13.29,0.058,234.1
09,2022-05-28T02:00:00,2000.0,42.79,6.0312,-0.064,-0.016,-0.009,75.0,70.0,77.0,11.7,1504.7,211.4,-0.7,1.1,1990.417,13.29,0.065,256.0
09,2022-05-28T02:30:00,2000.0,42.79,6.0312,-0.037,-0.016,-0.002,76.0,75.0,73.0,11.7,1504.7,210.1,-0.8,1.2,1990.452,13.29,0.04,246.6
09,2022-05-28T03:00:00,2000.0,42.79,6.0312,-0.057,-0.01,-0.023,76.0,73.0,75.0,11.7,1504.7,209.9,-1.1,1.0,1990.441,13.29,0.057,260.1
09,2022-05-28T03:30:00,2000.0,42.79,6.0312,-0.047,-0.032,-0.018,76.0,71.0,76.0,11.7,1504.7,210.8,-1.1,1.1,1990.445,13.29,0.056,235.8
09,2022-05-28T04:00:00,2000.0,42.79,6.0312,-0.052,-0.005,-0.003,77.0,70.0,77.0,11.7,1504.7,216.4,-0.5,1.0,1990.504,13.29,0.052,264.5
09,2022-05-28T04:30:00,2000.0,42.79,6.0312,-0.037,0.004,-0.007,76.0,72.0,72.0,11.7,1504.7,218.3,-1.0,0.9,1990.474,13.29,0.037,276.2
09,2022-05-28T05:00:00,2000.0,42.79,6.0312,-0.033,0.008,0.03,76.0,73.0,76.0,11.7,1504.7,215.3,-1.2,1.0,1990.487,13.29,0.033,283.6
09,2022-05-28T05:30:00,2000.0,42.79,6.0312,-0.043,-0.009,0.0,74.0,73.0,75.0,11.7,1504.7,219.0,-1.3,1.0,1990.496,13.29,0.043,258.2
09,2022-05-28T06:00:00,2000.0,42.79,6.0312,-0.057,-0.018,0.009,77.0,72.0,77.0,11.7,1504.7,217.4,-1.4,1.0,1990.496,13.29,0.059,252.5
09,2022-05-28T06:30:00,2000.0,42.79,6.0312,-0.059,0.006,0.01,77.0,72.0,75.0,11.7,1504.7,213.7,-0.8,1.2,1990.524,13.29,0.059,275.8
09,2022-05-28T07:00:00,2000.0,42.79,6.0312,-0.03,0.001,0.004,77.0,73.0,76.0,11.7,1504.7,217.6,-1.0,1.0,1990.477,13.29,0.03,271.9
09,2022-05-28T07:30:00,2000.0,42.79,6.0312,-0.036,-0.012,0.0,74.0,71.0,74.0,11.7,1504.7,221.5,-0.8,1.1,1990.47,13.29,0.037,251.6
09,2022-05-28T08:00:00,2000.0,42.79,6.0312,-0.041,0.024,0.01,76.0,72.0,75.0,11.7,1504.7,222.9,-1.0,1.1,1990.501,13.29,0.047,300.3
09,2022-05-28T08:30:00,2000.0,42.79,6.0312,-0.071,-0.002,-0.012,75.0,71.0,74.0,11.7,1504.7,223.9,-1.3,1.1,1990.447,13.29,0.071,268.4
09,2022-05-28T09:00:00,2000.0,42.79,6.0312,-0.062,-0.004,0.005,74.0,70.0,72.0,11.7,1504.7,225.6,-1.1,1.1,1990.429,13.29,0.062,266.3
09,2022-05-28T09:30:00,2000.0,42.79,6.0312,-0.048,-0.006,-0.016,75.0,69.0,74.0,11.7,1504.7,225.9,-1.4,1.0,1990.435,13.29,0.048,262.9
09,2022-05-28T10:00:00,2000.0,42.79,6.0312,-0.053,0.002,0.005,71.0,68.0,74.0,11.7,1504.7,225.8,-0.9,1.1,1990.433,13.28,0.053,272.2
09,2022-05-28T10:30:00,2000.0,42.79,6.0312,-0.057,0.016,0.001,76.0,70.0,72.0,11.7,1504.7,224.0,-1.1,1.1,1990.345,13.28,0.059,285.7
09,2022-05-28T11:00:00,2000.0,42.79,6.0312,-0.052,0.013,-0.005,68.0,67.0,71.0,11.7,1504.7,232.3,-1.1,1.1,1990.413,13.28,0.053,284.0
09,2022-05-28T11:30:00,2000.0,42.79,6.0312,-0.041,0.014,-0.025,69.0,64.0,66.0,11.7,1504.7,232.4,-1.1,1.1,1990.377,13.28,0.043,288.9
09,2022-05-28T12:00:00,2000.0,42.79,6.0312,-0.041,0.013,-0.007,68.0,64.0,68.0,11.7,1504.7,233.3,-1.1,1.0,1990.372,13.28,0.043,287.6
09,2022-05-28T13:00:00,2000.0,42.79,6.0312,-0.051,0.031,-0.031,69.0,67.0,67.0,11.7,1504.7,231.2,-1.0,1.0,1990.329,13.28,0.059,301.3
09,2022-05-28T13:30:00,2000.0,42.79,6.0312,-0.031,0.009,-0.026,70.0,65.0,67.0,11.7,1504.7,234.6,-1.2,1.0,1990.373,13.28,0.032,286.2
09,2022-05-28T14:00:00,2000.0,42.79,6.0312,-0.04,0.029,0.006,69.0,64.0,69.0,11.7,1504.7,238.8,-1.0,1.1,1990.38,13.28,0.049,305.9
09,2022-05-28T14:30:00,2000.0,42.79,6.0312,-0.045,0.03,-0.019,67.0,64.0,68.0,11.7,1504.7,239.4,-0.8,1.1,1990.389,13.28,0.054,303.7
09,2022-05-28T15:00:00,2000.0,42.79,6.0312,-0.037,0.022,-0.015,68.0,64.0,71.0,11.7,1504.7,241.8,-1.2,1.0,1990.409,13.28,0.043,300.7
09,2022-05-28T15:30:00,2000.0,42.79,6.0312,-0.043,0.042,0.012,67.0,62.0,65.0,11.7,1504.7,240.5,-1.2,1.1,1990.429,13.28,0.06,314.3
09,2022-05-28T16:00:00,2000.0,42.79,6.0312,-0.042,0.031,0.006,66.0,65.0,67.0,11.7,1504.7,240.3,-0.8,1.1,1990.491,13.28,0.052,306.4
09,2022-05-28T16:30:00,2000.0,42.79,6.0312,-0.023,0.03,-0.026,64.0,62.0,67.0,11.7,1504.7,238.9,-0.9,1.0,1990.471,13.28,0.037,322.5
09,2022-05-28T17:00:00,2000.0,42.79,6.0312,-0.041,0.03,-0.001,65.0,61.0,64.0,11.7,1504.7,238.0,-1.2,1.1,1990.497,13.28,0.05,306.2
09,2022-05-28T17:30:00,2000.0,42.79,6.0312,-0.03,0.03,-0.014,66.0,61.0,65.0,11.7,1504.7,242.9,-0.9,1.0,1990.496,13.28,0.042,315.0
09,2022-05-28T18:00:00,2000.0,42.79,6.0312,-0.04,0.009,0.005,66.0,61.0,63.0,11.7,1504.7,240.2,-0.9,1.1,1990.496,13.28,0.041,282.7
09,2022-05-28T18:30:00,2000.0,42.79,6.0312,-0.015,0.014,-0.006,67.0,62.0,64.0,11.7,1504.7,240.7,-0.7,1.0,1990.502,13.28,0.02,313.0
09,2022-05-28T19:00:00,2000.0,42.79,6.0312,-0.029,0.013,0.007,66.0,61.0,62.0,11.7,1504.7,243.2,-0.9,1.1,1990.484,13.28,0.031,294.1
09,2022-05-28T19:30:00,2000.0,42.79,6.0312,-0.034,0.009,-0.011,66.0,61.0,63.0,11.7,1504.7,238.1,-1.4,1.0,1990.493,13.28,0.035,284.8
09,2022-05-28T20:00:00,2000.0,42.79,6.0312,-0.023,0.018,-0.004,65.0,59.0,61.0,11.7,1504.7,233.1,-0.9,1.2,1990.538,13.28,0.029,308.0
09,2022-05-28T20:30:00,2000.0,42.79,6.0312,-0.038,0.013,0.0,65.0,60.0,65.0,11.7,1504.7,239.1,-1.1,1.1,1990.446,13.28,0.04,288.9
09,2022-05-28T21:00:00,2000.0,42.79,6.0312,-0.011,0.012,-0.031,65.0,63.0,65.0,11.7,1504.7,243.7,-0.8,1.0,1990.477,13.28,0.016,317.5
